Change the Weather History Date:

Friday, January 10, 2014

  Actual Average (KDRO) Record (KDRO)
Temperature  
Mean Temperature 22 °F 23 °F  
Max Temperature 36 °F 37 °F 56 °F (1981)
Min Temperature 9 °F 9 °F -12 °F (1977)
Degree Days  
Heating Degree Days 42 42  
Month to date heating degree days 419  
Since 1 July heating degree days 3293  
Cooling Degree Days 0 0  
Month to date cooling degree days 0  
Year to date cooling degree days 0  
Moisture  
Dew Point 14 °F    
Average Humidity 68    
Maximum Humidity 98    
Minimum Humidity 32    
Precipitation  
Precipitation 0.00 in 0.03 in 1.24 in (1980)
Month to date precipitation 0.35  
Year to date precipitation 0.35  
Sea Level Pressure  
Sea Level Pressure 29.93 in    
Wind  
Wind Speed 4 mph (WNW)    
Max Wind Speed 23 mph    
Max Gust Speed 33 mph    
Visibility 10 miles    
Events      
T = Trace of Precipitation, MM = Missing Value Source: NWS Daily Summary

Daily Weather History Graph

Daily Weather History Graph

Search for Another Location

Airport or City:

Trip Planner

Search our weather history database for the weather conditions in past years. The results will help you decide how hot, cold, wet, or windy it might be!

Date:

Astronomy

Jan. 10, 2014 Rise Set
Actual Time 7:22 AM MST 5:09 PM MST
Civil Twilight 6:53 AM MST 5:38 PM MST
Nautical Twilight 6:21 AM MST 6:10 PM MST
Astronomical Twilight 5:49 AM MST 6:41 PM MST
Moon 1:13 PM MST (1/10) 2:34 AM MST (1/10)
Length of Visible Light 10h 44m
Length of Day
9h 47m
Waxing Gibbous, 75% of the Moon is Illuminated
Jan 10
Waxing Gibbous
Jan 15
Full
Jan 23
Last Quarter
Jan 30
New
Feb 6
First Quarter

Hourly Weather History & Observations

Time (MST) Temp. Windchill Dew Point Humidity Pressure Visibility Wind Dir Wind Speed Gust Speed Precip Events Conditions
12:15 AM 22.6 °F 18.0 °F 21.6 °F 96% 29.88 in 10.0 mi NNE 3.5 mph - N/A   Clear
12:35 AM 23.4 °F 18.9 °F 22.5 °F 96% 29.87 in 10.0 mi NNE 3.5 mph - N/A   Scattered Clouds
12:55 AM 22.8 °F - 22.1 °F 97% 29.86 in 10.0 mi Calm Calm - N/A   Scattered Clouds
1:15 AM 22.3 °F - 21.4 °F 96% 29.86 in 10.0 mi Calm Calm - N/A   Clear
1:35 AM 20.5 °F - 19.9 °F 98% 29.85 in 10.0 mi Calm Calm - N/A   Clear
1:55 AM 16.5 °F - 15.4 °F 96% 29.85 in 10.0 mi Calm Calm - N/A   Clear
2:15 AM 18.9 °F - 17.6 °F 95% 29.86 in 10.0 mi Calm Calm - N/A   Clear
2:35 AM 16.0 °F - 14.9 °F 95% 29.86 in 10.0 mi Calm Calm - N/A   Clear
2:55 AM 18.7 °F - 18.1 °F 98% 29.85 in 10.0 mi Calm Calm - N/A   Clear
3:15 AM 17.6 °F - 16.3 °F 95% 29.86 in 10.0 mi Calm Calm - N/A   Clear
3:35 AM 14.7 °F - 13.5 °F 95% 29.86 in 10.0 mi Calm Calm - N/A   Clear
3:55 AM 15.3 °F - 14.2 °F 95% 29.86 in 10.0 mi Calm Calm - N/A   Clear
4:15 AM 15.1 °F - 14.2 °F 96% 29.86 in 10.0 mi Calm Calm - N/A   Clear
4:35 AM 13.3 °F - 11.5 °F 93% 29.87 in 10.0 mi Calm Calm - N/A   Clear
4:55 AM 13.3 °F - 11.1 °F 91% 29.88 in 10.0 mi Calm Calm - N/A   Clear
5:15 AM 13.6 °F - 12.4 °F 95% 29.88 in 10.0 mi Calm Calm - N/A   Clear
5:35 AM 11.7 °F - 8.8 °F 88% 29.88 in 10.0 mi Calm Calm - N/A   Clear
5:55 AM 13.1 °F - 11.7 °F 94% 29.89 in 10.0 mi Calm Calm - N/A   Clear
6:15 AM 9.7 °F - 6.6 °F 87% 29.88 in 10.0 mi Calm Calm - N/A   Clear
6:35 AM 12.6 °F - 10.9 °F 93% 29.89 in 10.0 mi Calm Calm - N/A   Clear
6:55 AM 14.7 °F 4.8 °F 13.5 °F 95% 29.89 in 10.0 mi NNE 6.9 mph - N/A   Clear
7:15 AM 13.3 °F - 11.5 °F 93% 29.89 in 10.0 mi Calm Calm - N/A   Clear
7:35 AM - - - N/A% 29.90 in 10.0 mi Calm Calm - N/A   Clear
7:55 AM - - - N/A% 29.90 in 10.0 mi Calm Calm - N/A   Clear
8:15 AM - - - N/A% 29.91 in 10.0 mi ENE 6.9 mph - N/A   Clear
8:35 AM - - - N/A% 29.92 in 10.0 mi ENE 6.9 mph - N/A   Clear
8:55 AM 19.8 °F 14.7 °F 18.7 °F 96% 29.92 in 10.0 mi NE 3.5 mph - N/A   Clear
9:15 AM 20.7 °F - 19.8 °F 96% 29.93 in 10.0 mi Calm Calm - N/A   Clear
9:35 AM 21.2 °F - 19.8 °F 94% 29.94 in 10.0 mi Calm Calm - N/A   Clear
9:55 AM 23.4 °F - 17.6 °F 79% 29.94 in 10.0 mi Calm Calm - N/A   Clear
10:15 AM 26.2 °F 22.1 °F 16.5 °F 67% 29.93 in 10.0 mi SE 3.5 mph - N/A   Clear
10:35 AM 26.6 °F - 15.1 °F 62% 29.94 in 10.0 mi Calm Calm - N/A   Clear
10:55 AM 27.5 °F - 15.3 °F 60% 29.93 in 10.0 mi Calm Calm - N/A   Clear
11:15 AM 28.8 °F 25.0 °F 15.8 °F 58% 29.90 in 10.0 mi South 3.5 mph - N/A   Clear
11:35 AM 30.9 °F 27.5 °F 15.8 °F 54% 29.90 in 10.0 mi South 3.5 mph - N/A   Clear
11:55 AM 31.1 °F - 16.0 °F 54% 29.89 in 10.0 mi Calm Calm - N/A   Clear
12:15 PM 32.0 °F 26.4 °F 15.8 °F 51% 29.88 in 10.0 mi ENE 5.8 mph - N/A   Clear
12:35 PM 32.9 °F - 16.7 °F 51% 29.87 in 10.0 mi Calm Calm - N/A   Clear
12:55 PM 34.3 °F 31.4 °F 16.2 °F 47% 29.87 in 10.0 mi NNE 3.5 mph - N/A   Clear
1:15 PM 36.9 °F 28.7 °F 10.6 °F 34% 29.86 in 10.0 mi WNW 12.7 mph 29.9 mph N/A   Clear
1:35 PM 36.7 °F 26.0 °F 9.0 °F 32% 29.86 in 10.0 mi West 20.7 mph 27.6 mph N/A   Clear
1:55 PM 36.3 °F 25.8 °F 10.0 °F 34% 29.86 in 10.0 mi West 19.6 mph 26.5 mph N/A   Clear
2:15 PM 36.5 °F 27.4 °F 12.0 °F 37% 29.87 in 10.0 mi West 15.0 mph 24.2 mph N/A   Clear
2:35 PM 36.0 °F 25.0 °F 12.6 °F 38% 29.87 in 10.0 mi West 20.7 mph 31.1 mph N/A   Clear
2:55 PM 35.8 °F 24.2 °F 11.8 °F 37% 29.87 in 10.0 mi West 23.0 mph 33.4 mph N/A   Clear
3:15 PM 35.4 °F 24.0 °F 12.0 °F 38% 29.88 in 10.0 mi WSW 21.9 mph 31.1 mph N/A   Clear
3:35 PM 35.6 °F 24.8 °F 12.4 °F 38% 29.89 in 10.0 mi WSW 19.6 mph 29.9 mph N/A   Clear
3:55 PM 35.2 °F 25.0 °F 12.7 °F 40% 29.89 in 10.0 mi West 17.3 mph 31.1 mph N/A   Clear
4:15 PM 34.9 °F 25.3 °F 12.9 °F 40% 29.91 in 10.0 mi West 15.0 mph 26.5 mph N/A   Clear
4:35 PM 33.8 °F 22.8 °F 14.0 °F 44% 29.92 in 10.0 mi West 18.4 mph 28.8 mph N/A   Clear
4:55 PM 33.3 °F 22.5 °F 14.0 °F 45% 29.93 in 10.0 mi West 17.3 mph 28.8 mph N/A   Clear
5:15 PM 32.7 °F 23.4 °F 14.7 °F 48% 29.95 in 10.0 mi West 12.7 mph 23.0 mph N/A   Clear
5:35 PM 32.2 °F 23.2 °F 14.4 °F 48% 29.96 in 10.0 mi West 11.5 mph 19.6 mph N/A   Clear
5:55 PM 32.0 °F 23.0 °F 14.0 °F 48% 29.97 in 10.0 mi West 11.5 mph 18.4 mph N/A   Clear
6:15 PM 32.0 °F 24.2 °F 14.2 °F 48% 29.99 in 10.0 mi WNW 9.2 mph 20.7 mph N/A   Clear
6:35 PM 31.8 °F 22.8 °F 14.0 °F 48% 29.99 in 10.0 mi WNW 11.5 mph - N/A   Clear
6:55 PM 31.1 °F 23.1 °F 14.0 °F 49% 29.99 in 10.0 mi NW 9.2 mph - N/A   Clear
7:15 PM 30.4 °F 22.9 °F 14.5 °F 52% 30.00 in 10.0 mi NW 8.1 mph - N/A   Clear
7:35 PM 30.0 °F 25.2 °F 14.7 °F 53% 30.01 in 10.0 mi NW 4.6 mph - N/A   Clear
7:55 PM 29.1 °F - 14.4 °F 54% 30.03 in 10.0 mi Calm Calm - N/A   Clear
8:15 PM 25.3 °F - 14.2 °F 63% 30.04 in 10.0 mi Calm Calm - N/A   Clear
8:35 PM 25.2 °F - 13.6 °F 62% 30.04 in 10.0 mi Calm Calm - N/A   Clear
8:55 PM 24.8 °F - 14.4 °F 65% 30.05 in 10.0 mi Calm Calm - N/A   Clear
9:15 PM 25.3 °F 19.7 °F 13.5 °F 61% 30.05 in 10.0 mi SSW 4.6 mph - N/A   Clear
9:35 PM 27.5 °F 22.2 °F 12.9 °F 54% 30.06 in 10.0 mi WNW 4.6 mph - N/A   Clear
9:55 PM 22.6 °F 18.0 °F 12.9 °F 66% 30.06 in 10.0 mi WSW 3.5 mph - N/A   Clear
10:15 PM 22.5 °F 17.8 °F 13.5 °F 68% 30.07 in 10.0 mi West 3.5 mph - N/A   Clear
10:35 PM 19.8 °F - 11.5 °F 70% 30.07 in 10.0 mi Calm Calm - N/A   Clear
10:55 PM 18.1 °F 12.9 °F 10.9 °F 73% 30.07 in 10.0 mi West 3.5 mph - N/A   Clear
11:15 PM 19.9 °F 14.9 °F 10.9 °F 68% 30.07 in 10.0 mi WSW 3.5 mph - N/A   Clear
11:35 PM 20.8 °F 14.4 °F 12.2 °F 69% 30.07 in 10.0 mi NE 4.6 mph - N/A   Clear
11:55 PM 19.9 °F - 11.7 °F 70% 30.08 in 10.0 mi Calm Calm - N/A   Clear